Cahokia, IL

3:38 AM CST on December 07, 2019 (GMT -0600)
Saint Louis Downtown

Weather History for KCPS - November, 2019

Change the Weather History Date:

Thursday, November 14, 2019

  Actual Average Record
Temperature  
Mean Temperature 33 °F -  
Max Temperature 42 °F 56 °F 78 °F (1958)
Min Temperature 23 °F 36 °F 16 °F (2018)
Degree Days  
Heating Degree Days 32    
Moisture  
Dew Point 23 °F    
Average Humidity 72    
Maximum Humidity 96    
Minimum Humidity 57    
Precipitation  
Precipitation 0.00 in - - ()
Sea Level Pressure  
Sea Level Pressure 30.30 in    
Wind  
Wind Speed 3 mph (NW)    
Max Wind Speed 9 mph    
Max Gust Speed -    
Visibility 9 miles    
Events      
Averages and records for this station are not official NWS values.
T = Trace of Precipitation, MM = Missing Value Source: NWS Daily Summary

Daily Weather History Graph

Daily Weather History Graph

Search for Another Location

Airport or City:

Astronomy

Nov. 14, 2019 Rise Set
Actual Time 6:41 AM CST 4:48 PM CST
Civil Twilight 6:12 AM CST 5:16 PM CST
Nautical Twilight 5:40 AM CST 5:48 PM CST
Astronomical Twilight 5:09 AM CST 6:20 PM CST
Moon 6:35 PM CST (11/14) 8:36 AM CST (11/14)
Length of Visible Light 11h 03m
Length of Day
10h 07m
Waning Gibbous, 95% of the Moon is Illuminated
Nov 14
Waning Gibbous
Nov 19
Last Quarter
Nov 26
New
Dec 4
First Quarter
Dec 11
Full

Hourly Weather History & Observations

Time (CST) Temp. Windchill Dew Point Humidity Pressure Visibility Wind Dir Wind Speed Gust Speed Precip Events Conditions
12:53 AM 30.0 °F 26.5 °F 18.0 °F 61% 30.15 in 10.0 mi South 3.5 mph - N/A   Clear
1:53 AM 26.1 °F - 17.1 °F 69% 30.16 in 10.0 mi Calm Calm - N/A   Clear
2:53 AM 24.1 °F - 19.0 °F 81% 30.17 in 10.0 mi Calm Calm - N/A   Clear
3:53 AM 24.1 °F - 18.0 °F 77% 30.17 in 10.0 mi Calm Calm - N/A   Clear
4:53 AM 27.0 °F - 18.0 °F 69% 30.18 in 10.0 mi Calm Calm - N/A   Clear
5:53 AM 28.0 °F - 19.0 °F 69% 30.21 in 10.0 mi Calm Calm - N/A   Overcast
6:53 AM 30.9 °F 27.5 °F 19.9 °F 64% 30.23 in 10.0 mi West 3.5 mph - N/A   Overcast
7:53 AM 32.0 °F 28.7 °F 21.9 °F 66% 30.26 in 10.0 mi WSW 3.5 mph - N/A   Overcast
10:53 AM 37.9 °F 34.4 °F 24.1 °F 57% 30.31 in 10.0 mi North 4.6 mph - N/A   Overcast
11:53 AM 39.0 °F 34.8 °F 27.0 °F 62% 30.31 in 10.0 mi WNW 5.8 mph - N/A   Scattered Clouds
12:53 PM 41.0 °F 36.4 °F 27.0 °F 57% 30.30 in 10.0 mi North 6.9 mph - N/A   Clear
1:53 PM 42.1 °F 36.6 °F 28.9 °F 60% 30.31 in 10.0 mi NW 9.2 mph - N/A   Clear
2:53 PM 42.1 °F 37.7 °F 28.0 °F 58% 30.31 in 10.0 mi NNW 6.9 mph - N/A   Clear
3:53 PM 42.1 °F 38.4 °F 28.0 °F 58% 30.32 in 10.0 mi North 5.8 mph - N/A   Clear
4:53 PM 37.0 °F 31.6 °F 28.0 °F 70% 30.34 in 10.0 mi North 6.9 mph - N/A   Clear
5:53 PM 34.0 °F 31.0 °F 26.1 °F 73% 30.37 in 10.0 mi North 3.5 mph - N/A   Clear
6:53 PM 32.0 °F - 26.1 °F 79% 30.38 in 10.0 mi Calm Calm - N/A   Clear
7:53 PM 28.9 °F - 25.0 °F 85% 30.39 in 10.0 mi Calm Calm - N/A   Clear
8:53 PM 27.0 °F - 25.0 °F 92% 30.40 in 7.0 mi Calm Calm - N/A   Clear
9:53 PM 26.1 °F - 24.1 °F 92% 30.40 in 6.0 mi Calm Calm - N/A   Clear
10:53 PM 24.1 °F - 23.0 °F 96% 30.41 in 7.0 mi Calm Calm - N/A   Clear
11:53 PM 23.0 °F - 19.9 °F 88% 30.41 in 5.0 mi Calm Calm - N/A   Clear